Theta_e
327 326 327 327 328 327 327 327 327 328 328 328 329 329 329 329 329 329 329 330 330 331 331 332 332 332 332 332 332 332 333 333 333 333 334 334 334 334 335 335 335 336 337 337 337 337 337 336 335 333 332 332 333 333 331 328 330 333 335 335 335 337 337 336 334 332 333 333 333 333 334 334 335 335 334 335 335 334 335 336 336 334 333 329 323
326 326 327 327 327 327 326 326 327 327 328 327 327 328 328 328 328 328 329 329 329 329 329 330 331 331 331 332 332 332 332 333 333 333 333 334 334 333 333 334 334 334 335 335 336 336 336 336 335 333 332 332 332 333 332 329 329 332 334 335 335 336 336 337 335 332 332 333 333 334 335 335 335 335 334 335 335 334 335 336 335 333 330 326 323
326 326 326 325 326 325 325 326 326 326 326 326 326 326 327 327 327 328 328 328 328 327 327 328 328 329 330 331 331 331 332 332 332 332 333 333 333 333 333 332 332 332 333 333 334 335 335 335 335 334 333 332 332 332 333 331 330 332 333 335 336 336 337 338 337 334 333 333 334 334 335 335 335 335 335 335 335 333 333 334 334 331 327 323 321
324 324 324 324 324 325 325 325 325 324 324 324 324 325 325 325 326 327 327 327 327 326 326 326 326 326 327 328 329 329 330 330 331 331 332 332 332 332 332 332 331 331 332 332 332 333 334 335 335 335 334 333 333 332 332 332 331 332 334 336 336 336 337 337 337 336 334 333 332 332 333 334 334 335 335 334 334 332 331 333 333 329 324 321 320
323 323 323 323 324 325 324 324 323 323 323 322 323 323 324 325 325 325 326 326 325 325 324 324 324 324 325 325 326 326 327 327 328 329 331 331 331 331 331 331 331 331 331 332 332 332 333 334 334 334 334 333 333 332 332 332 332 333 334 336 336 336 337 337 337 337 335 333 331 331 332 334 333 333 334 333 332 330 330 332 331 326 322 320 319
323 323 323 323 324 324 322 322 322 322 322 322 323 323 323 323 323 324 325 325 324 323 323 323 323 323 323 323 323 323 323 324 324 325 327 328 330 330 330 330 330 331 331 331 332 332 332 333 334 335 334 333 333 333 332 332 332 333 334 336 336 336 337 336 336 335 333 333 331 330 333 334 332 331 332 331 329 328 329 331 328 323 320 320 320
322 322 322 323 323 322 322 322 322 322 322 322 321 321 322 323 323 324 324 324 323 323 322 322 321 321 320 320 320 320 320 321 321 321 321 322 325 327 329 330 329 329 329 330 330 331 332 333 334 335 334 333 333 333 332 332 332 333 334 335 336 337 336 336 335 333 332 332 331 331 333 332 330 329 328 327 327 326 328 329 325 320 320 320 319
321 321 321 322 322 322 322 322 321 321 321 320 320 321 322 323 323 323 323 323 322 322 321 320 320 319 318 318 318 318 317 317 318 318 318 318 320 322 324 326 327 327 328 328 328 329 330 331 332 333 334 334 333 332 332 332 332 332 333 333 335 336 336 335 334 332 331 331 330 331 330 330 330 328 325 324 324 324 326 327 324 322 321 318 315
319 319 321 321 321 321 321 321 320 320 320 319 320 321 321 322 322 322 321 321 321 320 319 319 318 317 317 317 317 316 315 316 316 316 317 317 318 319 320 321 322 323 325 327 327 328 328 329 330 331 333 333 333 332 332 331 331 331 332 332 333 334 335 334 332 331 330 330 330 329 328 328 329 326 322 322 323 322 323 324 323 320 317 313 311
319 318 319 319 319 319 319 319 319 319 319 319 320 321 320 320 320 319 320 320 320 320 319 318 317 317 317 317 316 315 315 315 315 315 315 316 317 318 318 319 320 320 321 323 325 327 327 328 330 330 331 332 333 333 333 332 331 331 331 331 332 333 333 332 331 331 331 330 330 329 328 328 329 325 322 322 322 321 321 322 319 314 311 309 309
319 318 318 318 318 318 318 318 318 318 318 319 320 320 319 319 318 317 318 319 320 319 318 317 317 316 316 316 316 315 314 314 314 313 314 314 315 316 317 318 319 319 319 320 321 324 326 327 329 330 330 330 331 332 333 333 332 331 331 331 331 332 333 332 331 331 331 331 330 329 328 328 329 326 323 322 322 320 320 320 317 312 311 311 309
319 318 318 318 317 317 317 318 318 318 318 318 319 319 319 319 317 315 316 319 319 318 316 316 316 316 316 316 316 315 314 313 312 312 313 313 314 315 315 316 317 317 318 318 319 321 323 325 327 328 329 330 331 331 331 333 333 332 331 331 331 332 332 332 332 332 331 331 329 329 329 329 329 325 323 322 321 319 319 319 317 315 315 313 310
318 318 318 317 317 317 317 318 317 317 317 317 318 318 318 317 315 314 315 317 317 315 315 315 316 316 316 315 315 315 314 312 311 311 312 313 314 315 315 316 316 317 318 318 320 321 321 322 324 327 328 329 330 330 331 332 332 332 332 331 331 331 332 332 332 332 333 332 330 329 330 331 329 325 323 322 320 319 319 319 318 318 317 314 312
317 318 317 317 317 316 316 317 317 317 317 316 316 316 315 314 313 313 314 314 314 314 315 316 316 316 316 315 314 314 313 312 311 310 311 312 314 315 315 317 318 319 320 321 322 323 323 322 323 325 327 328 328 330 330 331 331 332 332 331 330 331 331 332 332 332 331 331 330 330 331 331 331 328 324 322 321 319 318 318 318 318 317 315 313
317 317 317 317 316 316 316 316 316 316 316 315 315 314 313 313 312 312 312 312 312 313 314 315 316 315 315 314 313 313 312 311 310 309 309 311 314 314 315 317 318 319 321 322 323 323 324 324 323 324 326 327 328 329 330 330 331 331 331 330 330 331 331 332 332 330 330 330 330 331 331 331 332 329 324 321 321 320 319 318 318 316 315 313 311
317 317 317 317 316 316 316 316 316 315 315 314 314 313 313 312 312 312 311 311 311 312 313 315 315 315 314 313 313 312 311 310 310 309 308 310 313 314 315 316 317 318 319 321 322 322 322 324 324 325 326 326 327 328 329 330 330 329 328 328 329 330 331 331 330 329 329 330 330 330 331 330 329 327 323 320 319 318 317 317 316 315 313 309 306
317 317 316 316 315 315 316 315 315 315 314 313 313 312 312 312 311 311 311 311 311 311 313 314 314 314 313 313 312 311 310 309 309 308 307 309 312 314 314 315 316 317 318 319 321 322 322 323 324 325 326 327 327 328 328 328 328 327 326 325 325 327 328 328 328 328 329 330 329 329 328 327 325 322 319 318 317 316 316 315 314 314 312 306 303
317 317 316 315 315 315 315 315 315 314 313 313 312 312 312 311 311 311 310 310 311 311 313 314 314 313 313 312 312 311 310 309 308 308 307 308 311 313 313 314 315 316 317 318 319 321 322 322 322 324 325 326 326 326 326 325 325 324 323 322 321 321 322 323 324 325 325 324 324 324 323 322 320 319 317 316 315 315 315 315 313 313 311 307 303
316 316 316 315 315 315 315 315 314 313 313 312 312 312 311 311 311 311 310 310 310 311 313 314 313 313 312 312 312 311 310 309 308 307 306 307 311 312 313 314 314 315 316 317 318 319 320 321 321 321 322 323 324 324 323 322 322 320 320 321 319 317 318 321 322 321 321 319 318 319 318 317 317 317 316 316 315 314 315 314 312 311 310 308 304
316 316 316 315 314 315 314 314 314 313 313 312 312 311 311 311 311 310 310 310 310 311 313 313 313 313 312 312 311 310 310 309 308 307 306 307 310 312 312 313 314 314 315 316 317 318 318 318 319 319 320 320 321 321 319 319 319 316 314 315 314 312 313 316 316 316 316 314 313 313 313 313 313 314 314 315 314 312 311 311 310 310 310 309 306
316 316 315 314 314 314 314 314 314 313 313 312 312 311 311 311 310 310 310 309 310 311 312 312 312 312 312 311 311 310 310 310 309 307 306 306 309 311 311 312 313 313 313 314 316 317 317 317 317 317 318 318 318 318 316 316 316 314 312 313 314 311 310 310 310 310 310 309 308 308 308 309 309 309 310 311 311 309 307 307 309 309 310 309 307
316 315 314 314 314 313 313 313 313 313 312 312 311 311 311 311 310 310 309 309 309 310 311 311 312 311 311 310 310 310 310 310 309 308 306 306 308 311 311 312 313 313 313 313 314 316 316 317 317 317 318 317 316 316 315 314 314 314 312 313 315 313 310 308 307 308 307 306 304 304 303 304 305 305 306 306 306 306 306 305 306 307 308 307 306
314 314 313 313 313 313 313 313 313 312 312 312 311 311 310 310 310 310 309 309 309 310 311 311 311 310 310 310 310 310 310 310 309 308 306 306 308 311 311 312 313 313 313 312 313 314 315 317 317 317 318 317 315 315 316 315 314 313 312 312 313 312 308 306 305 304 303 302 301 301 301 301 300 301 301 302 302 303 304 304 304 304 303 301 300
314 313 313 312 312 313 313 313 312 312 312 311 311 311 310 310 310 310 309 309 309 310 311 311 310 310 310 310 310 310 310 309 309 308 307 306 308 310 311 312 312 313 313 312 312 313 314 316 317 317 317 316 315 315 315 314 314 313 311 309 309 307 306 304 304 303 302 301 301 301 300 300 299 298 298 299 299 299 299 301 301 301 300 299 298
313 313 313 312 312 312 313 312 312 312 311 311 311 310 310 310 310 310 310 309 309 310 311 311 311 310 309 309 309 308 308 308 308 308 307 307 308 310 311 312 312 313 313 312 312 313 314 315 317 316 316 315 315 314 314 314 313 311 308 306 306 305 304 304 304 303 302 302 302 301 300 300 300 299 299 299 299 299 299 299 300 301 300 300 300
313 312 312 312 312 312 312 312 312 312 311 311 311 310 309 310 310 310 310 310 310 310 311 311 311 310 309 310 309 308 308 308 308 308 307 307 308 310 311 311 312 313 313 312 311 312 314 315 316 316 314 313 313 313 312 311 309 307 306 306 305 304 304 304 304 304 303 303 303 302 301 300 300 300 301 301 301 301 301 301 301 301 301 301 301
313 312 312 312 312 312 312 312 312 312 311 310 310 309 309 309 310 310 310 310 310 310 310 310 310 309 309 308 308 308 309 308 308 307 307 307 309 310 311 311 312 312 313 312 311 311 313 314 315 315 314 313 312 311 310 308 308 308 309 307 305 304 304 305 304 304 304 304 303 302 301 300 300 301 302 302 302 302 301 301 301 301 301 301 302
313 312 312 312 312 312 312 312 312 311 310 310 310 309 309 309 309 310 310 310 310 310 310 310 309 309 308 308 309 309 308 308 308 307 307 308 309 310 311 311 312 312 312 312 311 311 312 313 314 314 314 313 312 310 309 310 310 310 310 308 306 305 306 306 305 305 305 304 303 302 301 300 301 301 301 302 302 302 301 301 301 301 301 301 301
313 313 312 312 312 312 312 312 312 311 310 310 310 309 309 308 309 309 309 308 309 309 310 310 310 309 308 309 310 309 308 308 308 307 307 308 310 310 311 312 312 312 312 311 310 310 311 312 312 313 312 312 312 310 310 311 311 310 309 308 307 306 306 306 306 306 304 303 303 302 301 301 301 301 302 302 302 302 301 301 301 301 301 301 301
312 312 313 312 312 312 312 312 311 311 310 310 310 310 309 308 308 308 308 308 308 308 309 310 309 309 309 309 310 309 308 308 307 307 308 309 310 310 311 311 312 311 311 310 309 309 310 310 311 312 312 311 311 310 310 310 310 310 309 308 307 307 307 306 305 304 304 303 303 302 301 302 302 302 302 302 301 301 301 301 301 301 300 300 299
312 312 312 312 312 312 312 311 311 310 310 310 310 310 309 308 308 308 309 309 308 308 309 310 310 310 310 310 310 309 308 307 307 308 308 309 310 310 310 310 310 310 310 309 307 307 308 309 309 310 310 309 308 309 309 309 308 307 307 307 307 307 306 305 304 303 303 302 302 302 302 302 303 303 303 302 302 302 301 301 301 301 300 299 299
312 312 312 312 312 312 312 311 311 311 310 310 310 309 309 309 309 309 309 309 309 309 309 310 310 310 310 309 310 309 307 306 308 308 308 308 309 310 309 310 309 309 308 307 306 305 306 307 308 308 308 308 307 307 307 307 306 305 305 307 307 307 306 305 304 304 303 303 303 303 303 303 304 304 304 303 302 302 302 301 301 301 301 300 299
312 312 311 311 311 311 311 310 310 310 310 310 309 309 308 309 309 309 309 310 310 309 310 310 311 310 310 309 309 308 306 306 308 309 308 308 308 308 308 309 308 307 306 305 304 303 303 305 307 307 306 306 306 305 305 306 305 304 305 306 306 306 306 305 304 304 303 303 303 303 304 304 304 304 304 303 302 303 303 302 302 302 301 300 299
313 312 311 310 310 310 309 309 309 309 309 309 309 309 309 309 309 309 309 309 310 310 310 311 311 310 310 309 308 306 305 306 308 309 309 309 308 308 308 308 307 305 304 302 302 301 300 302 304 304 304 305 305 305 305 305 305 305 305 305 305 304 304 304 304 304 304 303 303 304 304 304 304 304 303 302 302 303 303 302 302 302 302 300 299
313 312 310 310 309 309 309 308 308 309 309 309 309 309 309 308 308 308 309 309 310 310 310 310 310 309 309 309 307 305 304 305 307 308 309 309 308 308 308 307 305 304 302 301 301 300 299 300 302 303 303 304 304 305 305 304 303 303 304 304 304 304 304 304 304 304 304 304 303 304 304 304 304 303 302 302 302 302 303 303 302 302 302 301 300
312 311 310 309 309 309 308 308 308 308 308 308 308 308 309 308 308 308 309 309 310 310 310 310 309 308 308 308 307 305 303 304 307 308 308 308 308 307 307 306 305 303 302 301 302 302 301 301 301 302 303 304 304 304 305 304 304 303 303 303 304 304 304 304 304 304 304 305 304 303 303 303 303 303 302 302 303 303 303 303 302 302 302 301 300
312 310 309 309 309 309 308 308 308 308 308 308 308 308 308 308 308 308 308 309 309 309 309 309 308 307 307 307 306 305 304 305 307 308 307 307 307 306 306 306 305 303 301 301 302 304 303 302 301 302 302 303 304 304 305 305 305 304 304 304 304 304 304 305 304 304 304 304 304 303 303 303 303 303 303 303 303 303 303 303 302 302 302 301 301
311 310 309 309 309 309 309 309 309 309 308 307 307 307 307 308 308 308 308 308 308 308 308 308 307 306 306 306 306 305 305 306 307 306 306 306 305 305 305 305 304 303 301 300 301 303 304 303 303 303 303 304 305 306 306 305 306 305 305 304 305 305 305 305 305 304 304 304 304 304 303 303 304 303 303 303 304 304 303 303 303 302 302 301 301
311 309 309 309 309 309 309 309 309 309 308 307 307 306 306 307 308 308 308 307 307 307 307 307 306 306 306 306 306 305 305 306 306 305 305 305 305 305 305 305 304 302 300 299 300 303 304 304 305 305 305 306 306 306 306 306 306 306 306 305 305 305 305 305 305 305 304 304 304 304 304 304 304 304 304 304 304 304 304 303 303 303 302 301 301
310 310 309 309 309 309 309 309 309 308 307 307 306 305 306 307 308 308 308 307 306 306 306 306 306 306 305 306 306 305 305 305 305 305 305 305 304 304 304 304 305 304 302 300 299 300 303 304 305 306 306 306 306 306 306 307 307 307 307 306 305 305 305 305 304 304 304 304 304 304 304 304 304 304 304 303 303 304 304 303 303 303 302 302 302
310 310 309 310 309 309 309 308 308 308 308 307 306 306 306 307 308 308 308 307 307 306 306 305 305 305 304 305 305 305 305 305 304 304 304 304 304 305 304 304 305 305 305 304 301 300 301 302 304 305 305 305 306 306 306 306 307 307 307 306 306 306 306 305 305 304 304 304 304 304 305 305 304 304 304 304 303 303 303 303 303 303 302 302 301
310 310 310 310 309 309 308 308 308 308 307 307 306 306 307 307 308 308 308 307 306 306 305 305 305 304 304 304 304 304 305 305 304 304 304 304 304 304 304 304 304 304 305 306 304 302 300 301 302 304 305 305 305 306 306 306 306 306 306 306 306 306 306 306 306 305 305 305 305 305 305 304 304 304 304 304 304 303 303 303 303 303 302 301 301
310 310 310 310 309 309 309 309 308 308 307 306 307 307 307 307 308 308 307 307 306 305 304 304 304 304 304 304 303 303 304 304 304 304 304 303 303 303 303 303 303 303 304 305 304 303 301 301 302 303 305 305 305 305 306 306 307 306 306 306 306 306 306 306 306 306 306 305 305 305 304 304 303 303 303 303 304 304 303 303 303 302 302 301 301
311 310 310 309 309 309 309 309 308 308 308 307 307 307 307 308 308 308 308 307 307 306 305 305 305 304 304 303 303 303 303 303 303 303 303 303 302 302 302 301 301 301 302 303 303 303 302 302 302 303 304 305 305 305 306 306 306 307 307 306 307 307 306 306 306 306 306 305 305 305 304 304 304 304 303 303 303 304 303 303 303 302 302 301 301
311 310 310 309 309 309 309 309 309 308 308 308 308 308 308 307 307 308 308 307 307 307 307 306 306 305 304 303 303 303 303 303 303 303 303 302 301 300 300 300 300 301 302 302 302 302 302 302 302 303 304 305 305 306 306 306 306 306 306 307 307 307 306 306 306 306 306 306 305 305 304 304 304 304 303 303 303 303 303 303 303 302 302 301 300
311 310 310 309 309 308 308 309 308 308 308 308 308 308 308 307 307 307 307 307 307 307 307 306 306 305 304 303 303 303 303 303 302 302 302 301 300 299 299 300 300 301 301 302 302 302 301 302 302 303 304 305 305 306 306 306 305 306 306 306 307 307 306 306 306 306 305 305 305 305 304 304 304 303 303 303 303 303 303 302 302 301 301 300 299
311 310 310 309 309 308 308 308 308 308 308 307 308 307 307 307 307 307 307 307 307 307 306 306 306 306 305 304 304 303 303 303 302 302 302 300 299 298 298 299 300 300 301 302 302 302 302 302 302 302 303 304 304 304 305 305 305 306 306 306 306 307 307 306 306 306 306 306 305 305 305 304 304 303 303 303 302 302 302 301 301 300 300 299 298
311 310 310 309 309 308 308 308 308 307 307 307 307 307 307 308 308 307 307 307 307 307 307 306 306 306 306 305 305 305 304 304 303 303 302 301 300 299 299 299 300 300 301 302 302 302 302 302 302 303 303 303 303 304 304 305 306 306 306 306 306 307 307 307 306 306 306 306 306 305 305 305 304 304 303 302 302 302 301 301 300 300 299 298 297
311 311 310 310 309 308 308 308 307 307 307 306 306 306 307 307 307 307 307 307 307 307 307 306 306 306 306 306 306 306 306 305 305 304 304 303 303 302 301 301 300 300 301 301 302 302 302 303 303 303 303 303 304 304 304 305 306 306 306 306 306 307 307 307 307 306 306 306 306 306 305 305 304 304 303 303 302 301 301 301 300 299 299 298 297
311 311 311 310 309 309 308 308 308 308 307 307 306 306 306 306 307 307 307 307 307 307 307 307 306 306 306 306 307 307 306 306 306 305 305 305 305 304 303 303 302 302 302 302 302 303 303 302 303 303 303 304 305 305 305 306 306 306 307 307 307 307 307 307 307 307 307 306 306 306 305 305 304 304 303 303 302 302 301 301 300 299 298 297 296
312 311 311 310 310 309 309 308 308 308 307 307 307 307 306 306 307 307 307 307 307 307 307 307 307 306 306 307 307 307 307 307 306 306 306 306 305 305 305 304 304 303 303 303 303 303 303 303 303 303 303 304 305 305 306 306 306 307 307 307 307 307 307 307 307 307 306 306 306 306 305 305 305 304 304 303 303 302 302 301 300 299 298 297 295
Wind_Speed
20 18 17 17 15 14 14 13 12 11 9 8 8 8 7 6 5 4 4 5 5 6 8 10 10 11 11 10 10 9 10 12 14 16 17 19 20 21 23 25 27 28 28 28 28 28 28 29 29 28 27 26 27 27 26 25 24 22 21 19 17 16 16 14 12 11 15 15 13 11 10 9 9 10 12 12 12 11 11 11 11 9 8 8 8
21 21 20 18 16 14 13 13 13 12 11 9 8 8 7 7 6 5 5 5 4 3 4 6 6 6 7 7 7 7 7 8 10 12 14 17 17 18 20 23 25 27 28 29 29 29 29 30 31 30 28 27 27 28 27 26 25 24 23 21 20 19 17 16 16 13 14 17 17 14 11 11 10 10 13 14 13 12 13 13 12 10 9 9 9
23 22 21 19 17 15 14 13 12 11 11 10 9 8 7 7 6 6 6 5 5 4 3 5 5 4 4 5 5 6 8 9 10 11 12 13 14 16 18 21 24 26 27 29 30 29 29 30 31 31 29 27 27 29 29 28 25 24 23 22 22 20 19 18 17 15 14 15 17 17 14 11 10 11 13 14 13 12 12 13 12 12 11 10 9
24 23 21 19 18 17 16 14 13 12 12 10 9 8 7 7 7 7 7 6 6 5 5 5 6 5 6 6 6 7 8 9 10 10 10 11 12 15 17 20 23 24 26 27 28 28 29 30 31 30 28 28 28 28 29 28 26 23 21 22 22 21 21 20 19 17 15 14 15 16 15 12 12 12 13 14 13 12 12 13 13 14 13 11 10
23 24 23 21 21 20 17 16 16 15 13 11 10 10 9 9 8 8 8 9 8 7 6 6 6 5 5 5 6 7 8 8 9 9 10 11 13 15 17 19 21 22 24 26 26 27 28 29 30 29 28 28 28 28 28 27 25 22 21 21 22 22 22 22 21 19 18 17 14 12 11 11 12 12 14 15 15 13 13 14 15 16 15 13 10
26 28 26 25 24 21 18 18 18 16 15 14 13 12 11 11 11 10 10 10 9 8 7 7 6 6 6 7 9 10 11 12 13 13 13 13 14 15 16 18 19 21 22 24 25 26 27 28 29 29 28 29 28 28 28 27 25 23 22 22 23 23 23 22 21 20 21 19 15 11 10 10 9 10 12 16 18 17 17 17 17 17 15 13 10
30 31 28 27 25 22 21 21 20 18 17 15 13 12 12 13 13 12 12 12 11 10 8 7 7 7 9 10 12 14 15 16 18 18 17 16 16 17 18 19 20 20 21 22 24 25 27 28 29 29 28 28 28 28 28 27 25 23 23 23 23 23 24 23 22 22 22 19 16 16 14 12 10 9 12 17 18 19 22 22 21 18 15 13 10
31 30 28 27 26 24 24 23 21 19 16 14 12 12 13 13 12 12 12 12 11 10 8 7 7 9 10 12 13 14 14 15 17 16 15 15 15 17 20 21 22 22 21 21 22 24 26 27 29 29 29 28 28 29 29 28 27 26 24 24 24 24 24 24 24 24 23 20 18 17 15 14 12 10 14 20 20 20 22 25 24 20 16 13 10
29 28 28 29 28 27 26 24 21 18 15 13 13 13 12 12 12 12 12 11 11 10 8 7 7 8 11 13 13 14 13 12 12 12 12 12 12 13 16 19 21 22 23 23 22 23 24 25 27 28 29 29 29 29 29 28 28 29 28 27 26 26 26 26 25 24 22 20 19 16 14 15 14 14 19 24 23 22 22 24 24 21 17 15 12
29 29 30 30 29 28 26 23 20 17 15 14 15 13 13 12 11 11 12 13 13 12 9 8 7 8 11 13 14 14 12 10 9 9 10 11 12 13 14 15 18 20 21 23 25 26 26 26 26 26 27 29 31 31 31 30 29 29 30 29 29 28 27 26 26 25 23 21 20 18 16 17 19 22 24 25 23 23 23 24 25 23 20 17 14
29 30 30 29 27 26 23 21 19 16 15 15 16 15 14 13 12 11 12 13 13 11 9 9 9 9 11 13 14 14 12 10 9 10 11 12 13 15 16 16 18 18 18 20 24 27 28 28 27 26 26 27 29 31 32 32 32 31 30 31 31 30 29 29 28 27 26 24 23 22 21 21 24 26 25 24 23 24 25 25 27 26 23 18 14
31 32 31 29 26 24 23 22 19 16 15 15 16 16 15 15 14 12 12 13 13 11 11 11 11 10 11 12 14 14 14 12 11 12 12 12 13 16 17 18 19 19 18 18 20 23 26 28 29 28 27 27 28 29 30 31 32 32 31 32 32 32 32 32 31 30 30 28 25 25 25 24 26 27 26 25 25 25 25 25 26 25 22 19 16
33 33 31 29 27 24 23 21 19 18 17 16 16 17 17 16 16 13 12 13 12 12 13 13 12 12 11 12 13 14 14 15 14 14 13 13 13 15 16 17 18 19 19 19 21 21 22 26 28 29 28 26 26 27 29 30 30 31 33 34 34 34 35 35 36 35 35 33 29 30 30 29 30 31 29 28 28 26 24 23 23 22 21 20 18
35 33 31 29 26 23 21 21 20 20 19 16 16 18 18 18 16 13 12 12 12 14 15 15 14 13 13 12 12 14 15 15 16 15 14 14 14 14 15 16 17 18 19 20 21 22 22 23 26 28 29 27 26 27 28 28 28 30 33 34 36 36 36 36 38 38 37 36 33 33 33 32 33 34 31 30 30 28 26 24 22 20 20 20 18
34 33 30 27 24 22 22 22 22 21 19 17 18 19 19 18 16 13 12 12 13 14 15 15 15 14 13 12 12 14 15 15 15 15 15 15 14 14 15 15 16 17 18 20 21 22 22 23 24 27 28 28 28 28 28 27 27 29 32 33 34 36 36 37 36 33 32 33 33 34 33 32 33 34 33 30 28 26 25 23 22 21 22 20 17
33 31 29 26 23 23 25 25 23 21 19 19 20 20 19 17 14 12 12 12 13 14 14 15 15 15 13 12 12 14 14 13 15 16 16 15 15 14 14 14 15 16 18 20 21 22 21 21 23 26 27 28 29 29 28 28 28 29 30 31 32 33 34 35 34 31 30 31 31 32 32 31 31 33 32 29 26 25 24 23 22 23 24 20 15
31 30 28 26 25 26 28 27 24 22 21 21 21 20 18 16 14 13 13 13 13 14 16 16 16 14 13 12 12 13 13 13 15 16 16 15 15 14 13 13 13 14 16 18 19 19 19 18 19 22 25 28 29 28 27 28 29 31 31 31 31 32 32 31 30 29 29 29 29 29 29 30 30 30 29 27 26 26 26 26 26 26 25 19 13
30 30 29 28 28 29 29 28 25 24 23 23 22 20 19 17 15 14 13 14 14 15 16 16 15 14 13 12 11 12 13 14 15 16 16 14 14 14 13 13 13 13 13 14 15 15 15 15 15 18 21 25 26 26 27 28 30 32 34 33 32 31 30 29 27 26 24 25 26 27 28 29 29 28 26 24 24 24 24 26 27 27 25 20 16
32 33 32 30 29 30 30 28 26 25 25 24 22 21 20 18 15 14 13 14 14 15 16 16 16 16 15 13 12 11 12 13 15 16 15 14 13 13 13 14 14 14 12 11 11 11 12 13 12 14 17 20 21 22 25 28 31 32 34 37 36 32 32 32 32 31 30 28 27 27 27 27 27 26 24 22 22 22 20 21 25 27 25 23 22
34 33 31 29 29 30 29 28 27 26 26 24 23 21 19 17 15 14 13 13 13 15 16 16 17 17 16 15 12 11 11 12 14 15 15 14 13 13 13 13 14 13 12 10 9 8 9 9 10 12 14 16 18 20 23 27 30 28 27 31 36 35 34 34 33 34 34 31 28 27 26 24 23 23 22 21 21 20 18 18 22 24 24 24 24
32 32 30 29 30 31 29 28 27 27 26 24 22 20 18 16 14 13 13 13 14 16 16 16 17 18 16 14 11 10 10 12 13 14 14 13 13 13 13 12 11 12 11 10 8 6 5 5 7 10 12 13 17 21 21 22 25 24 21 25 32 34 33 33 32 32 32 30 27 24 23 22 21 21 21 21 20 18 18 17 17 18 20 23 21
31 31 29 29 30 30 29 28 27 26 25 24 21 19 17 15 13 13 13 14 15 16 15 13 14 15 14 12 11 10 11 12 14 14 14 13 12 13 13 11 9 10 12 10 8 5 4 3 4 7 11 12 15 18 19 19 22 22 22 25 30 32 32 32 31 31 31 30 28 25 24 24 24 23 22 20 18 18 18 17 16 15 15 16 16
30 29 27 27 28 28 28 28 27 26 24 22 19 17 16 14 14 14 14 14 16 16 13 12 12 12 11 11 12 12 12 13 14 15 14 13 12 12 12 11 9 10 12 11 8 4 3 3 3 6 11 13 13 14 14 16 17 19 21 25 29 31 31 31 31 32 32 31 31 29 26 24 23 23 21 20 19 18 18 18 18 18 17 15 12
28 26 25 25 25 25 26 27 27 25 23 20 17 16 15 15 15 15 15 14 15 15 13 13 13 12 10 11 12 13 12 14 15 16 14 13 12 12 11 11 10 10 11 9 5 2 1 2 1 6 11 12 12 12 12 13 15 18 23 26 28 30 32 31 30 32 33 32 31 29 26 23 22 22 21 21 20 19 19 19 20 20 19 19 17
26 24 24 24 24 24 26 27 26 24 21 19 17 15 16 17 17 16 14 14 15 14 13 13 14 12 11 12 13 13 13 15 17 16 14 12 11 11 11 11 10 10 10 8 4 1 1 1 4 10 13 13 13 13 12 11 14 20 24 24 25 29 32 30 28 29 30 30 29 27 24 22 21 22 22 23 22 22 22 22 21 19 19 18 17
25 24 24 24 24 25 27 27 25 22 20 18 16 15 16 17 18 17 15 15 16 15 14 15 15 14 12 12 13 13 15 18 18 15 13 11 10 10 11 11 11 11 10 8 4 1 2 4 8 14 15 14 14 15 14 15 18 22 22 22 23 27 29 28 28 28 28 27 27 26 24 22 22 23 23 22 22 22 21 21 19 17 16 16 16
26 26 25 25 25 27 28 27 25 22 20 18 17 17 16 17 18 18 18 18 17 17 16 17 17 15 13 11 11 12 15 18 16 13 12 11 9 10 11 11 12 12 11 8 5 4 5 7 11 16 17 16 16 19 21 23 22 21 19 19 21 23 25 27 28 29 28 28 27 26 25 24 23 22 21 20 19 19 19 18 18 16 15 16 17
27 27 26 26 27 29 29 28 25 23 21 20 19 19 18 18 20 21 19 19 19 19 18 18 19 18 16 13 11 13 16 17 17 14 12 10 9 10 11 11 12 13 13 11 8 7 7 9 12 15 17 18 20 22 25 25 22 19 16 16 18 21 22 22 24 26 27 27 26 26 26 25 23 22 20 20 19 18 17 17 16 15 16 18 19
28 27 27 28 29 30 29 28 25 23 22 22 21 20 19 20 22 21 19 19 19 18 17 18 19 19 18 16 14 15 17 18 16 13 11 9 9 10 11 11 11 12 12 12 11 9 10 11 12 14 16 20 21 21 21 22 22 19 17 15 17 19 18 18 21 24 26 27 26 26 26 25 23 22 20 20 18 17 16 16 16 15 17 20 20
27 27 28 29 30 31 29 27 25 23 23 23 23 22 21 21 21 21 20 20 20 19 17 16 17 18 19 17 13 13 15 15 12 10 10 10 10 10 11 10 10 11 12 12 12 12 13 14 14 15 18 21 22 20 19 19 20 18 16 15 16 18 19 20 24 27 26 25 24 24 24 24 23 22 20 20 18 16 16 17 16 15 17 20 19
26 27 29 30 30 30 29 27 25 25 24 24 24 25 23 22 22 22 21 22 22 22 20 18 17 17 18 16 12 11 12 11 9 9 11 11 10 10 11 11 11 12 13 13 13 14 15 15 15 16 17 18 19 18 18 17 16 15 16 16 17 20 23 25 26 26 23 21 20 21 23 24 23 22 20 19 19 17 17 17 16 14 15 17 16
26 27 29 31 31 30 29 27 27 27 25 25 25 25 23 20 19 20 21 22 23 23 21 19 19 19 17 15 13 12 11 10 9 10 11 11 10 10 11 11 12 12 13 14 14 14 16 16 16 16 16 16 16 17 17 16 15 15 17 19 20 21 24 24 24 22 20 19 19 20 22 23 22 21 20 20 19 18 17 17 16 14 13 13 12
28 28 30 31 31 30 29 28 27 26 26 25 25 25 23 20 19 18 18 18 19 21 21 21 21 21 18 15 14 12 11 11 11 12 13 12 11 10 10 11 12 13 15 15 15 15 16 17 18 18 17 17 18 16 15 17 16 15 17 20 21 20 21 21 21 20 19 19 19 19 20 21 20 20 20 21 20 19 17 17 16 15 14 14 13
29 29 31 32 32 30 28 25 24 23 24 24 24 24 24 24 22 20 17 15 16 19 21 22 22 21 18 15 14 12 11 12 13 14 14 14 13 12 12 12 13 16 16 15 15 16 16 17 18 18 19 19 18 15 15 17 17 15 16 19 20 20 20 21 21 20 20 20 18 18 19 18 18 20 22 22 21 20 18 17 16 15 16 16 15
29 30 32 33 31 28 26 24 23 22 23 23 23 23 25 26 24 21 19 19 20 21 23 24 23 21 18 16 14 13 11 12 14 15 15 15 14 15 15 15 16 19 19 16 14 15 16 17 18 19 20 19 17 15 15 17 17 17 17 18 20 20 20 20 20 20 20 19 17 17 18 18 18 21 23 23 21 21 20 19 17 17 18 18 16
29 31 32 32 30 27 26 25 24 24 24 23 21 21 23 25 24 22 21 22 22 23 24 24 22 20 19 17 16 14 12 11 13 16 16 15 15 16 18 19 20 22 22 19 15 13 14 16 17 18 18 17 15 14 14 14 15 16 17 19 21 21 20 20 20 20 21 20 18 17 18 19 20 23 25 23 21 21 21 21 20 19 19 19 18
30 32 33 32 30 28 27 26 24 24 24 21 18 18 20 22 23 23 22 23 23 23 23 22 21 20 20 18 17 15 13 13 14 16 16 16 16 17 20 21 22 23 25 23 18 16 15 15 17 17 17 16 15 14 14 15 17 17 17 19 21 21 21 21 21 21 22 22 20 19 20 20 22 25 26 23 21 20 21 22 22 21 20 19 19
32 33 34 33 32 29 27 25 24 25 24 21 18 18 19 21 22 22 22 23 23 23 23 22 21 22 22 20 19 17 16 16 17 18 17 17 17 18 20 22 22 23 26 26 22 19 18 17 17 17 17 16 16 17 18 20 22 22 21 22 23 23 22 22 23 23 23 23 22 22 22 22 23 25 25 24 23 22 22 23 23 22 22 21 20
33 34 34 33 32 30 28 26 25 25 24 22 20 20 20 19 20 21 21 21 22 23 23 22 22 23 24 22 21 20 19 20 21 21 20 20 21 21 21 22 22 23 25 27 25 23 21 19 18 18 18 18 18 19 20 23 26 27 26 26 26 26 25 24 25 26 27 25 24 24 24 24 25 26 26 26 25 24 24 25 24 24 24 23 22
35 35 34 33 32 31 29 27 26 27 26 25 24 23 21 19 19 19 19 20 22 24 24 23 24 25 25 24 24 24 24 24 24 24 24 24 24 24 24 25 24 24 24 26 28 26 24 23 21 20 19 18 17 16 16 20 26 29 29 29 29 29 28 27 27 28 29 28 27 27 26 25 26 27 27 27 27 26 25 25 25 25 25 24 22
36 35 35 35 34 33 31 28 28 29 29 28 26 24 22 20 19 19 19 21 23 25 26 26 27 26 24 23 25 26 27 28 27 27 26 26 27 28 28 28 28 27 26 27 28 28 28 26 24 21 19 18 16 13 13 16 23 28 29 30 30 31 31 30 30 30 31 30 29 28 27 26 26 27 27 27 27 27 26 25 24 24 24 23 21
36 35 36 36 35 33 31 30 30 30 30 28 27 25 23 21 20 20 20 22 24 25 27 28 28 27 24 23 24 26 28 29 29 28 28 28 28 30 31 31 31 30 29 29 29 29 29 29 27 24 21 19 18 16 13 13 16 23 27 28 27 28 29 28 27 29 30 30 28 27 26 25 25 25 25 25 25 27 27 25 24 24 24 23 21
37 36 37 37 36 34 33 31 31 30 30 30 28 26 24 22 21 21 21 22 24 25 27 28 29 28 26 24 24 25 28 29 29 29 29 30 30 31 32 32 32 32 31 31 30 30 30 29 29 27 25 23 21 19 17 14 15 18 24 26 26 26 26 24 23 24 27 28 28 27 27 25 24 23 22 22 22 24 25 26 25 25 24 23 21
37 36 36 36 36 35 33 32 31 31 32 32 30 27 25 24 24 24 23 22 23 24 25 26 28 29 28 25 24 25 28 30 30 30 31 31 31 32 32 33 33 32 32 32 32 31 31 31 30 30 28 26 23 21 19 17 17 18 22 27 27 26 25 25 24 25 26 27 28 27 26 24 22 21 21 21 21 22 25 26 26 25 24 23 22
36 36 35 34 34 34 33 32 32 32 33 32 30 28 27 27 27 26 25 24 23 23 23 24 27 29 29 27 25 27 29 30 31 32 32 32 32 33 33 33 33 32 32 32 32 32 32 32 32 31 30 29 25 23 22 21 19 19 23 28 27 25 26 26 25 25 25 25 24 23 22 21 21 21 20 21 22 23 25 26 26 26 25 25 25
35 35 35 34 34 34 34 33 33 33 33 32 31 29 29 29 29 29 28 27 25 24 24 24 26 28 30 29 28 29 29 30 32 32 32 32 33 33 34 34 34 33 32 31 31 32 32 32 32 32 31 30 27 25 25 24 22 19 25 30 27 24 25 25 23 23 23 21 20 19 19 20 21 21 21 22 23 24 25 26 27 27 27 27 27
35 35 35 35 34 34 34 34 33 33 33 32 32 31 30 30 30 30 30 30 29 27 25 25 25 27 29 30 30 30 30 30 32 33 33 33 33 32 33 34 34 34 34 32 31 32 32 32 33 32 32 31 30 28 28 27 24 20 24 31 29 24 23 24 23 22 21 20 19 20 20 20 22 23 24 24 25 26 27 27 28 28 28 27 26
35 35 35 35 34 33 32 32 32 32 32 32 32 32 31 31 30 30 31 31 31 29 27 26 25 26 28 29 29 29 29 30 31 32 33 34 34 33 33 34 34 35 35 34 34 34 33 33 33 33 32 33 32 31 29 28 25 22 24 31 33 29 26 26 25 23 22 22 23 23 22 22 23 24 26 27 28 29 29 29 29 28 28 27 26
35 35 35 34 34 33 33 33 33 33 33 32 32 32 31 31 30 30 31 31 31 31 30 29 27 26 26 27 28 29 29 30 30 31 32 33 34 34 34 34 34 35 35 35 35 35 35 35 34 34 33 33 32 31 30 30 28 26 26 31 35 33 29 28 27 26 25 26 26 25 25 25 25 25 26 28 29 29 30 30 30 29 28 28 27
36 36 35 35 35 35 34 34 33 33 33 32 32 32 32 31 31 31 31 31 31 31 32 32 30 28 28 28 28 29 30 31 31 32 32 32 33 33 34 35 35 35 36 36 36 36 36 36 36 35 34 32 31 31 30 31 31 29 28 31 36 36 33 31 30 29 28 28 28 27 27 27 27 27 28 28 29 30 31 31 31 30 30 29 29
36 36 36 36 36 35 34 33 33 32 32 32 32 31 31 31 32 32 32 31 31 31 32 33 32 31 31 30 30 31 31 32 32 32 32 32 32 32 33 35 36 36 37 37 37 36 36 36 36 35 34 33 31 31 30 31 32 31 30 31 35 38 36 34 33 32 31 30 30 29 29 30 29 30 30 31 32 33 33 33 32 32 31 31 30
Wind_Direction
206 208 210 207 203 203 208 212 214 215 214 215 220 225 231 233 236 240 238 245 252 254 257 254 252 255 256 257 260 262 265 264 261 260 261 261 261 262 262 260 258 255 254 254 254 254 255 256 257 257 257 257 258 258 254 248 245 244 246 243 232 228 229 216 207 232 242 235 233 235 228 221 214 203 197 193 193 198 200 201 206 203 187 166 143
204 205 203 198 199 203 210 215 218 218 215 210 213 219 223 223 228 233 235 243 245 244 252 245 241 250 253 254 255 255 260 262 262 264 265 266 266 266 266 265 262 260 257 256 255 253 253 253 255 257 256 256 256 257 255 250 245 244 246 243 236 232 233 224 215 220 232 234 230 226 225 224 215 203 199 197 196 195 196 202 204 192 175 160 140
203 203 200 197 201 208 214 215 210 207 207 209 214 216 216 220 228 236 239 239 229 216 218 216 208 208 211 215 220 228 238 244 247 252 257 263 268 269 269 266 262 260 257 256 255 253 252 251 252 254 254 255 255 254 254 251 246 245 245 242 238 234 231 227 221 216 223 236 233 223 219 222 214 200 197 200 200 195 198 204 198 179 165 153 138
206 204 201 201 203 206 210 209 203 202 206 210 215 215 216 221 225 231 234 226 215 211 216 213 204 200 199 200 206 216 228 236 241 241 242 249 257 263 267 266 262 259 258 258 257 254 253 251 251 252 252 251 252 251 250 250 246 243 242 238 235 232 230 227 225 223 226 238 243 230 218 221 219 200 190 196 200 204 209 203 187 172 159 147 137
217 215 207 201 200 199 201 204 202 202 203 204 208 211 213 218 221 226 226 222 220 222 225 224 218 215 216 221 232 241 248 251 250 243 237 238 244 250 257 261 262 262 261 261 260 258 256 255 254 252 250 247 247 247 247 246 243 239 236 235 231 229 229 226 225 228 227 231 241 237 219 220 221 204 191 191 192 193 198 191 176 164 155 147 143
225 223 210 199 196 193 196 200 200 199 199 199 202 207 213 219 221 219 218 221 225 228 231 236 242 250 260 267 272 277 279 278 275 268 257 247 243 246 252 256 259 260 260 260 260 260 258 257 256 252 248 245 243 243 243 241 239 235 230 228 226 225 223 220 220 222 222 224 228 227 217 210 217 216 197 187 184 176 170 169 166 160 153 151 155
223 217 205 196 192 191 195 198 198 198 198 199 204 212 218 220 218 215 217 221 225 230 238 251 267 279 285 287 286 287 287 284 281 277 271 262 253 249 251 254 256 258 258 257 257 257 257 257 257 253 249 246 243 241 239 235 233 230 226 224 223 221 219 217 218 217 216 217 217 219 214 195 196 216 194 179 178 172 163 160 161 160 157 158 164
213 205 196 191 189 192 194 194 195 197 197 201 209 214 214 216 217 217 218 219 220 228 240 256 274 289 294 292 292 295 293 282 275 273 271 267 261 255 254 255 256 257 258 258 258 257 255 254 255 254 251 248 244 240 238 235 231 227 225 224 223 221 217 215 215 214 212 210 209 214 212 193 191 204 187 172 165 163 164 162 161 163 163 160 162
199 188 185 185 186 189 189 189 193 196 196 200 203 205 210 215 219 218 217 216 216 221 232 246 265 284 290 292 296 302 296 279 273 277 277 275 272 265 262 261 261 260 259 259 260 260 258 255 253 253 252 249 245 242 241 239 236 231 228 225 222 220 216 212 210 207 204 202 203 204 198 190 194 193 184 177 166 161 165 163 158 159 157 147 142
192 180 179 181 182 184 185 189 193 192 194 198 197 201 209 209 207 211 215 215 214 217 225 237 252 271 281 286 294 299 290 276 282 295 295 293 291 284 277 271 270 269 264 261 259 259 260 259 256 254 252 250 247 245 245 245 243 239 235 231 226 219 212 208 205 202 198 195 195 197 192 189 194 191 185 184 176 166 165 161 154 151 146 133 122
194 185 184 183 182 183 185 188 190 189 193 198 198 204 208 201 196 205 213 213 213 219 228 239 248 260 271 280 288 292 285 277 288 301 301 300 300 297 293 285 280 277 273 266 261 258 258 260 260 257 253 251 248 246 246 246 244 241 238 237 233 224 215 209 203 199 198 197 195 197 197 193 193 192 187 186 181 174 171 166 159 155 151 139 129
193 190 189 187 185 185 186 186 187 188 193 197 201 207 206 196 194 201 206 206 211 224 238 245 250 254 262 273 282 288 288 284 288 296 299 300 300 299 298 295 292 287 282 276 270 264 260 258 259 259 256 252 248 246 246 246 245 242 238 237 235 231 227 223 215 206 201 199 196 199 201 193 188 191 190 186 181 177 175 171 167 166 162 151 143
190 189 188 186 184 183 183 184 186 189 193 197 201 202 196 192 195 198 197 200 214 233 242 245 248 252 258 267 276 285 289 288 287 291 296 298 299 298 299 302 302 298 294 289 283 277 268 260 257 257 257 253 248 245 244 244 245 243 239 236 234 232 232 232 232 226 217 207 200 201 202 194 186 190 192 188 182 175 171 172 173 173 166 156 150
189 188 186 183 183 183 184 186 188 191 193 196 196 192 189 190 194 195 196 206 223 236 240 240 243 248 254 262 274 282 284 284 285 289 293 296 296 296 297 301 304 302 298 293 288 284 277 267 258 253 254 254 251 247 245 244 245 243 240 236 232 229 228 228 229 228 222 215 209 206 204 198 193 192 191 190 186 179 174 175 176 171 162 156 153
191 188 185 183 184 187 189 189 188 189 191 192 189 187 190 193 196 200 211 225 235 239 241 241 242 247 252 260 276 284 282 279 283 289 293 294 294 295 295 296 301 302 296 288 284 282 279 272 262 254 252 252 251 249 247 245 243 241 237 232 227 223 221 220 219 217 216 216 214 209 204 199 196 193 188 188 188 185 181 181 178 169 157 150 148
189 186 184 183 188 193 192 189 188 187 187 186 185 187 193 197 201 208 219 230 238 241 241 242 244 246 251 262 279 286 283 281 286 292 294 293 293 298 301 300 301 301 296 289 283 282 282 277 267 258 253 252 252 249 246 242 238 232 225 217 213 211 210 212 212 211 213 213 211 207 199 192 192 190 186 185 184 181 176 170 168 163 151 142 137
185 185 184 187 193 195 193 190 188 186 184 184 186 190 195 198 202 211 220 227 235 237 237 239 243 246 250 261 278 287 288 289 293 296 296 292 293 301 308 307 303 300 299 295 288 284 285 282 273 264 256 252 251 248 241 233 226 219 211 201 196 196 198 202 203 204 209 208 203 199 191 183 183 182 180 179 179 178 170 161 164 164 154 144 136
183 185 188 192 195 194 192 190 188 186 186 187 190 193 196 199 206 214 223 230 236 237 237 238 241 243 246 255 270 284 292 296 297 298 297 292 291 298 307 309 306 299 299 299 292 283 280 277 273 267 256 250 248 242 232 222 213 207 200 189 182 181 181 183 182 181 185 184 179 178 174 173 175 174 173 176 178 181 180 173 172 171 161 152 142
185 188 193 196 196 193 192 191 190 189 190 192 195 197 198 201 208 216 223 230 237 239 235 235 239 240 241 247 260 279 295 301 300 300 298 292 287 292 301 307 305 298 296 299 295 284 276 270 265 259 251 247 243 233 221 211 202 198 193 183 174 167 166 167 165 162 162 159 158 160 161 163 168 167 168 172 174 182 194 191 182 178 170 159 148
191 195 197 198 196 194 193 194 194 194 195 197 199 201 201 203 210 218 223 227 236 237 231 233 240 239 236 242 255 274 296 306 306 303 300 291 284 287 296 304 305 300 296 297 298 293 283 272 260 250 242 237 230 218 209 204 197 194 191 178 165 155 152 154 155 154 151 147 145 149 151 154 160 161 163 169 172 177 189 191 187 184 176 162 153
198 199 199 198 196 196 196 197 197 198 200 200 200 201 203 208 216 223 225 226 232 234 232 238 242 235 232 240 254 274 295 307 310 309 306 294 281 282 291 298 302 302 298 294 294 293 285 275 264 246 229 219 211 201 196 195 190 185 181 166 152 146 143 142 143 142 139 135 134 135 137 140 146 150 155 160 163 166 171 173 180 186 179 166 159
199 197 197 197 197 198 198 198 198 199 199 199 199 199 203 211 221 226 227 229 233 237 238 238 233 226 229 242 255 270 287 298 305 312 312 299 279 276 286 292 292 296 300 296 291 285 264 264 269 241 214 199 196 194 190 188 182 179 177 165 153 147 143 139 139 139 135 133 133 132 134 138 139 140 143 144 146 152 156 155 158 167 169 169 169
195 194 194 195 197 198 197 197 196 196 196 196 198 200 203 211 220 225 227 230 233 235 234 227 220 223 235 246 254 266 279 289 298 308 313 302 276 266 278 285 279 285 297 298 296 292 266 269 275 232 207 189 184 189 191 188 183 178 173 161 151 147 143 139 139 138 135 135 135 135 137 139 137 135 136 135 136 141 143 140 140 142 140 137 139
193 194 193 191 193 194 195 194 194 194 192 192 197 203 207 213 219 223 226 228 231 234 232 226 226 235 247 250 253 262 274 285 292 301 309 301 273 259 269 276 270 276 292 296 297 309 305 307 245 196 187 173 165 173 180 182 178 168 158 151 146 144 143 142 141 139 136 135 135 135 138 139 137 136 136 133 130 130 131 132 132 130 126 120 114
192 192 191 190 191 192 191 191 190 190 191 193 200 206 210 214 217 220 223 227 231 234 233 230 233 240 248 253 255 261 274 282 285 292 303 296 270 257 264 267 261 269 283 286 284 345 55 84 152 168 168 159 156 165 172 176 171 159 150 147 146 145 144 144 143 138 134 132 133 135 139 140 137 136 135 131 127 125 126 128 127 124 123 121 117
191 190 189 190 190 189 188 186 186 189 193 200 207 211 212 214 215 217 221 225 230 234 235 236 238 240 246 256 263 268 274 276 275 284 296 290 268 259 263 258 249 255 267 267 248 168 114 131 154 162 162 157 158 160 157 155 155 152 148 150 152 150 148 148 147 141 136 136 138 139 139 138 137 135 133 132 131 130 130 131 131 132 134 136 135
191 189 189 188 188 188 187 185 186 191 196 201 207 211 212 214 213 213 215 220 226 232 237 239 241 241 243 253 268 276 274 268 266 276 287 281 264 261 262 251 238 239 247 245 222 172 144 144 157 165 166 163 159 152 147 146 148 150 155 161 160 156 153 153 151 147 146 146 145 141 139 139 138 138 138 137 137 138 138 138 137 140 146 148 147
192 191 190 189 187 188 188 187 189 194 198 202 206 209 210 211 213 216 219 223 225 228 232 238 242 243 239 244 263 275 269 260 260 272 278 269 257 259 260 249 234 230 231 229 213 176 154 152 158 164 167 165 159 153 149 148 148 151 159 167 165 159 156 156 155 154 154 153 148 143 143 144 142 141 142 143 143 143 147 148 145 145 150 151 148
193 193 191 189 188 188 189 192 194 197 201 205 209 214 215 215 217 223 231 234 231 230 232 236 242 243 240 240 250 254 251 253 263 272 267 255 250 251 250 243 232 223 219 216 205 181 165 160 156 157 157 157 156 156 155 153 154 157 164 171 172 170 168 167 166 163 161 158 153 150 152 151 147 146 147 146 146 149 154 154 146 141 148 151 147
192 191 189 187 188 189 191 194 197 201 206 209 213 218 220 220 222 229 238 242 239 236 237 242 248 246 242 242 244 245 249 261 273 267 250 244 242 238 235 231 220 210 205 204 199 186 174 166 161 159 156 154 157 160 161 159 160 167 177 187 192 190 184 176 168 163 160 158 156 158 161 159 155 155 154 150 147 149 154 154 145 138 145 150 147
190 189 188 189 190 191 193 196 200 206 211 214 217 218 219 221 225 232 240 245 243 240 240 246 252 248 244 246 250 250 255 263 265 249 239 235 229 223 221 215 206 202 200 198 195 189 179 170 166 166 164 160 160 160 161 164 171 181 189 193 194 190 181 173 166 161 159 157 156 159 163 164 164 166 166 159 150 145 149 154 150 142 147 152 151
193 191 191 193 193 193 195 198 204 209 213 216 218 217 215 217 224 232 238 242 242 239 238 242 245 243 243 249 252 250 251 251 243 233 225 218 215 218 218 212 205 201 199 196 196 194 185 175 172 173 172 170 165 162 168 179 185 185 182 181 182 183 180 175 171 168 165 162 160 163 166 168 170 173 174 172 163 153 151 156 157 155 157 161 161
199 195 193 193 192 193 196 201 206 210 212 213 215 213 211 213 220 227 232 235 234 233 233 235 237 237 240 248 248 244 246 248 239 224 213 209 212 217 221 221 213 203 198 198 201 201 192 182 177 176 175 174 172 173 181 187 184 175 169 171 175 179 180 177 175 174 172 170 169 171 174 177 180 179 178 179 176 168 163 163 166 170 172 171 170
204 201 196 192 190 192 197 203 207 210 211 212 213 213 213 216 219 220 218 216 218 222 225 227 228 231 237 244 243 236 237 244 240 226 214 213 217 222 228 227 213 203 201 204 207 205 196 185 180 177 176 178 182 184 186 186 184 181 176 171 168 168 169 170 173 177 178 178 179 180 183 188 190 186 182 182 184 182 177 174 177 183 184 181 179
207 205 199 194 192 194 200 204 209 212 213 212 213 215 216 216 216 216 214 212 212 214 218 220 222 226 230 235 234 230 230 237 236 226 216 214 217 221 223 219 208 203 204 206 207 204 197 189 182 179 180 185 190 192 192 192 194 195 192 185 180 177 176 176 178 183 184 185 188 192 193 194 193 187 182 183 187 188 185 183 186 189 190 189 188
207 203 198 195 196 199 203 206 209 215 216 213 213 217 218 217 217 218 218 220 219 218 218 219 219 221 223 225 226 226 227 229 228 222 217 217 218 217 215 212 209 208 208 206 203 202 200 194 188 186 190 197 204 209 211 213 213 208 201 195 193 191 189 189 191 193 193 192 193 194 195 193 189 185 183 185 188 189 189 189 192 195 196 197 197
204 199 196 197 200 204 207 210 214 219 218 211 207 212 216 220 222 221 220 222 223 223 222 221 217 216 218 219 219 218 217 217 217 217 216 217 219 218 216 215 214 212 210 209 207 205 204 200 195 197 203 211 218 227 233 236 235 228 216 207 202 200 200 202 204 203 201 199 198 197 197 195 191 190 192 193 193 193 195 196 198 202 204 203 201
203 200 200 201 204 206 209 213 217 219 215 209 209 214 216 217 220 221 222 225 226 225 224 222 219 218 219 218 215 213 209 206 207 209 212 213 213 213 216 219 220 218 216 214 212 212 211 207 203 206 214 222 234 246 250 247 243 238 230 222 217 214 212 213 214 211 208 206 205 204 204 204 201 201 204 204 203 203 203 203 205 206 204 203 203
203 203 205 206 206 207 210 213 214 213 209 208 214 219 217 213 213 216 221 225 225 224 224 223 223 225 225 221 215 210 205 203 204 207 210 213 213 214 216 220 223 225 223 221 219 220 220 216 215 219 226 237 250 261 259 248 241 237 234 231 228 225 224 223 221 217 215 214 213 211 211 213 213 214 216 217 217 214 209 207 208 209 205 204 207
203 205 207 207 206 208 210 211 210 208 207 208 213 217 216 214 213 216 219 221 222 222 223 224 228 231 230 225 219 213 208 206 208 211 213 215 217 217 219 222 225 227 228 228 227 227 227 227 227 232 239 249 260 269 266 249 238 233 233 233 231 229 228 227 223 220 219 220 219 218 218 220 220 221 222 222 221 220 216 212 211 212 211 211 213
206 206 207 208 208 208 208 209 209 209 209 210 211 212 216 219 219 219 218 219 220 222 222 226 232 237 235 231 226 222 217 215 215 216 217 220 222 222 223 226 228 230 231 232 232 232 232 234 236 239 244 250 259 270 272 255 240 235 233 233 231 230 231 230 227 225 225 225 225 224 226 227 225 224 224 224 223 223 222 218 216 215 215 215 215
207 207 207 208 207 207 207 209 211 211 212 211 210 211 217 220 219 218 218 219 220 221 222 227 234 239 238 236 232 228 225 224 223 221 222 224 225 226 227 229 231 232 234 235 235 234 234 236 239 241 244 249 256 264 270 266 253 240 231 227 225 225 225 227 228 227 227 228 227 227 226 224 221 220 221 222 224 225 223 221 218 216 214 214 216
209 209 208 207 207 207 209 211 211 211 212 212 212 214 219 220 217 217 219 220 221 222 224 230 235 238 238 238 234 228 226 226 226 226 227 228 228 229 230 230 232 234 235 237 237 236 236 238 240 243 246 250 256 260 263 270 273 257 238 229 227 225 223 221 222 222 222 222 221 220 218 216 214 215 216 217 220 222 220 218 216 214 215 218 221
210 210 209 208 207 208 210 211 210 210 211 212 214 217 221 221 219 218 219 220 221 223 228 234 237 237 236 235 230 225 225 227 228 229 231 231 231 232 232 232 233 234 235 237 238 237 237 239 242 245 247 250 255 258 259 266 279 271 246 231 226 223 219 214 209 208 210 211 211 213 214 214 214 215 216 217 217 216 214 213 213 215 218 221 222
211 210 209 208 207 207 208 209 210 210 210 212 215 219 221 223 222 221 221 223 224 225 228 233 236 236 234 232 229 226 227 228 230 231 233 233 234 235 235 235 234 235 236 237 238 238 239 240 242 244 248 250 253 256 256 262 274 266 237 219 210 206 204 202 201 202 205 209 211 213 216 217 218 218 219 218 216 215 214 215 216 219 221 222 223
211 211 210 209 207 207 207 208 208 209 210 213 216 218 220 222 224 223 224 226 227 227 228 230 232 232 232 232 233 232 232 231 231 232 234 235 237 237 238 237 237 237 238 240 241 241 242 242 242 244 247 249 251 253 255 261 268 255 224 210 206 205 203 203 204 206 208 212 216 218 220 222 223 224 224 223 220 219 220 220 221 222 223 224 226
212 212 211 211 209 208 207 207 207 208 209 212 215 216 217 220 222 223 224 226 228 229 229 230 230 230 230 231 233 236 237 237 236 236 237 237 238 240 240 239 239 240 241 242 243 242 242 243 243 244 246 248 250 253 255 258 265 256 227 213 213 218 217 213 213 214 215 218 222 224 223 224 224 225 226 225 223 223 224 224 225 226 227 228 230
212 212 212 212 211 209 207 207 207 208 209 211 214 216 217 219 220 221 223 226 228 228 229 231 232 231 230 230 233 236 239 240 240 241 241 241 241 242 241 241 241 242 243 244 245 244 243 243 243 244 246 248 250 253 253 252 257 260 242 224 220 223 225 221 220 222 224 227 229 229 227 226 226 226 225 225 225 226 226 227 228 230 231 232 234
213 212 212 212 211 210 209 208 208 209 211 213 214 217 219 220 221 222 224 227 228 229 230 231 232 231 231 231 233 236 237 238 239 241 242 243 244 245 244 244 244 244 244 246 247 247 247 246 246 246 248 249 250 251 251 249 250 256 251 235 226 225 226 225 224 226 228 230 231 231 230 230 229 229 229 229 229 229 230 231 233 234 234 234 234
212 213 212 213 213 213 212 211 211 212 214 214 215 217 220 221 222 224 226 228 229 230 232 233 233 233 234 235 236 237 237 238 239 240 242 243 244 246 246 246 246 246 246 247 249 250 250 250 250 249 250 251 250 249 250 251 252 254 253 242 232 228 227 227 227 229 230 231 231 231 231 232 232 232 233 233 233 233 235 236 236 235 233 232 232
211 212 212 214 215 214 213 212 212 214 215 215 216 218 219 220 222 225 228 229 229 230 232 234 235 236 237 238 240 240 240 241 242 242 243 243 244 244 245 246 246 247 247 248 249 250 251 252 253 253 252 251 250 250 252 256 258 259 258 247 235 229 228 228 229 230 232 233 233 233 232 232 233 234 236 236 235 235 236 237 236 234 233 232 230